Voltar ao catálogo

SPARCS

AtivoCiênciaSSO
NORAD 67386·PAYLOAD·🇺🇸 United States
Este nome de satélite ainda não foi confirmado por fontes oficiais.

Lançado Jan 11, 2026 de Vandenberg Space Force Base

Loading…

Próximas Passagens (próximas 24 horas)

TLE

AtualizadoSource: Space-Track

Época: Sep 14, 2026, 06:42 UTC

1 67386U 26004Z   26257.27919158  .00001286  00000-0  14220-3 0  9995
2 67386  97.8057 254.7349 0002721 158.5763 201.5568 14.89111937 36559

Acompanhe SPARCS em tempo real com AllMySat

Download on the App Store